Total_Precipitation_Accumulation
0.02 0.02 0.04 0.18 0.18 0.27 0.28 0.32 0.28 0.43 0.47 0.43 0.45 0.43 0.54 0.60 0.49 0.34 0.23 0.16 0.11 0.08 0.05 0.02 0.01 0.00 0.00 0.00 0.00 0.00 0.00 0.01 0.01 0.00 0.00 0.00 0.00 0.00 0.00 0.00 0.00 0.00 0.00
0.09 0.11 0.13 0.30 0.34 0.40 0.54 0.51 0.57 0.63 0.57 0.61 0.64 0.43 0.25 0.16 0.11 0.09 0.08 0.07 0.04 0.03 0.01 0.00 0.00 0.00 0.00 0.00 0.00 0.00 0.00 0.00 0.01 0.01 0.00 0.00 0.00 0.00 0.00 0.00 0.00 0.00 0.00
0.24 0.32 0.23 0.37 0.38 0.66 0.74 0.97 1.01 0.85 0.53 0.31 0.18 0.18 0.18 0.14 0.09 0.08 0.05 0.03 0.02 0.01 0.00 0.00 0.00 0.00 0.00 0.00 0.00 0.00 0.00 0.00 0.00 0.00 0.00 0.00 0.00 0.00 0.00 0.00 0.00 0.00 0.00
0.37 0.38 0.31 0.33 0.43 0.53 0.62 0.71 0.76 0.39 0.28 0.28 0.29 0.26 0.14 0.06 0.04 0.04 0.04 0.03 0.03 0.01 0.00 0.00 0.00 0.00 0.00 0.00 0.00 0.00 0.00 0.00 0.00 0.00 0.00 0.00 0.00 0.00 0.01 0.02 0.01 0.01 0.00
0.42 0.48 0.42 0.55 0.88 0.89 0.86 0.55 0.29 0.19 0.16 0.11 0.06 0.03 0.02 0.02 0.04 0.04 0.02 0.01 0.01 0.01 0.00 0.00 0.00 0.00 0.00 0.00 0.00 0.00 0.00 0.00 0.00 0.00 0.01 0.01 0.01 0.01 0.02 0.03 0.02 0.01 0.01
0.29 0.30 0.46 0.54 0.37 0.33 0.26 0.17 0.09 0.04 0.03 0.01 0.01 0.01 0.02 0.03 0.11 0.08 0.03 0.01 0.01 0.00 0.00 0.00 0.00 0.00 0.00 0.00 0.00 0.00 0.00 0.00 0.01 0.02 0.03 0.03 0.03 0.03 0.03 0.03 0.04 0.06 0.05
0.17 0.18 0.20 0.15 0.09 0.08 0.06 0.05 0.04 0.03 0.02 0.01 0.01 0.01 0.02 0.02 0.04 0.02 0.01 0.00 0.00 0.00 0.00 0.00 0.00 0.00 0.00 0.00 0.00 0.00 0.00 0.00 0.00 0.02 0.03 0.03 0.03 0.03 0.04 0.03 0.02 0.03 0.02
0.10 0.08 0.06 0.04 0.03 0.02 0.03 0.04 0.03 0.05 0.04 0.03 0.03 0.04 0.05 0.04 0.04 0.02 0.01 0.00 0.00 0.00 0.00 0.00 0.00 0.00 0.00 0.00 0.00 0.00 0.01 0.02 0.02 0.01 0.01 0.01 0.01 0.01 0.02 0.02 0.03 0.03 0.01
0.02 0.02 0.01 0.00 0.00 0.01 0.02 0.01 0.02 0.04 0.04 0.04 0.03 0.02 0.01 0.01 0.01 0.00 0.00 0.00 0.00 0.00 0.00 0.00 0.00 0.00 0.00 0.00 0.00 0.01 0.01 0.00 0.00 0.00 0.02 0.01 0.00 0.00 0.01 0.03 0.03 0.05 0.04
0.00 0.00 0.00 0.00 0.00 0.00 0.01 0.01 0.01 0.01 0.01 0.00 0.00 0.00 0.00 0.00 0.00 0.00 0.00 0.00 0.00 0.00 0.00 0.00 0.00 0.00 0.00 0.00 0.01 0.02 0.04 0.01 0.01 0.02 0.03 0.02 0.01 0.01 0.02 0.04 0.04 0.08 0.08
0.00 0.00 0.00 0.00 0.00 0.00 0.00 0.00 0.01 0.00 0.00 0.00 0.00 0.00 0.00 0.00 0.00 0.00 0.00 0.00 0.00 0.00 0.00 0.00 0.00 0.00 0.00 0.00 0.01 0.03 0.03 0.02 0.03 0.04 0.05 0.04 0.02 0.02 0.01 0.00 0.00 0.03 0.06
0.00 0.00 0.00 0.00 0.00 0.00 0.00 0.00 0.00 0.00 0.00 0.00 0.00 0.00 0.00 0.00 0.00 0.00 0.00 0.00 0.00 0.01 0.01 0.00 0.00 0.00 0.01 0.00 0.01 0.01 0.01 0.03 0.08 0.08 0.08 0.05 0.03 0.03 0.03 0.02 0.02 0.01 0.02
0.00 0.00 0.00 0.00 0.00 0.00 0.00 0.00 0.00 0.00 0.00 0.00 0.00 0.00 0.00 0.00 0.00 0.00 0.00 0.00 0.00 0.03 0.04 0.02 0.02 0.03 0.06 0.08 0.05 0.05 0.10 0.17 0.17 0.16 0.10 0.06 0.04 0.03 0.03 0.04 0.03 0.04 0.03
0.00 0.00 0.00 0.00 0.00 0.00 0.00 0.00 0.00 0.00 0.00 0.00 0.01 0.00 0.00 0.00 0.00 0.00 0.01 0.01 0.01 0.03 0.05 0.05 0.05 0.07 0.07 0.08 0.07 0.07 0.11 0.10 0.11 0.13 0.10 0.08 0.07 0.08 0.06 0.04 0.09 0.08 0.12
0.00 0.00 0.00 0.00 0.00 0.00 0.00 0.00 0.00 0.01 0.01 0.00 0.00 0.00 0.01 0.02 0.01 0.01 0.01 0.03 0.04 0.06 0.09 0.11 0.09 0.09 0.09 0.09 0.09 0.07 0.06 0.07 0.11 0.10 0.10 0.09 0.08 0.08 0.06 0.05 0.07 0.06 0.11
0.00 0.00 0.00 0.00 0.01 0.01 0.02 0.02 0.02 0.01 0.01 0.01 0.02 0.02 0.01 0.02 0.00 0.01 0.02 0.06 0.09 0.12 0.23 0.15 0.09 0.10 0.10 0.09 0.12 0.11 0.10 0.10 0.10 0.11 0.12 0.12 0.14 0.15 0.14 0.13 0.15 0.16 0.13
0.00 0.01 0.02 0.06 0.08 0.08 0.05 0.04 0.04 0.05 0.05 0.03 0.01 0.01 0.02 0.04 0.07 0.10 0.13 0.15 0.14 0.16 0.28 0.16 0.13 0.13 0.14 0.15 0.14 0.13 0.13 0.13 0.16 0.19 0.17 0.15 0.14 0.12 0.11 0.11 0.12 0.12 0.10
0.07 0.11 0.12 0.11 0.09 0.07 0.08 0.09 0.07 0.05 0.03 0.02 0.01 0.02 0.04 0.09 0.12 0.11 0.10 0.12 0.10 0.07 0.10 0.10 0.09 0.06 0.06 0.09 0.09 0.10 0.09 0.09 0.12 0.11 0.12 0.12 0.15 0.16 0.17 0.15 0.13 0.16 0.16
0.22 0.18 0.14 0.12 0.10 0.09 0.07 0.04 0.02 0.02 0.01 0.01 0.01 0.03 0.09 0.09 0.03 0.02 0.02 0.05 0.07 0.05 0.04 0.05 0.06 0.09 0.08 0.07 0.09 0.11 0.12 0.12 0.11 0.12 0.10 0.11 0.11 0.13 0.13 0.12 0.14 0.12 0.12
0.14 0.11 0.07 0.05 0.03 0.03 0.02 0.02 0.02 0.01 0.01 0.03 0.06 0.12 0.07 0.03 0.01 0.01 0.02 0.04 0.06 0.08 0.08 0.08 0.06 0.09 0.12 0.12 0.11 0.12 0.12 0.10 0.11 0.11 0.12 0.14 0.14 0.15 0.14 0.13 0.13 0.14 0.09
0.04 0.01 0.00 0.00 0.01 0.01 0.01 0.02 0.01 0.01 0.04 0.07 0.10 0.09 0.07 0.07 0.05 0.05 0.06 0.08 0.10 0.09 0.08 0.09 0.09 0.10 0.11 0.14 0.15 0.15 0.13 0.12 0.13 0.14 0.14 0.13 0.14 0.14 0.12 0.13 0.14 0.15 0.15
0.00 0.00 0.00 0.00 0.00 0.01 0.01 0.01 0.01 0.03 0.05 0.06 0.05 0.04 0.04 0.05 0.05 0.05 0.06 0.08 0.07 0.08 0.09 0.09 0.09 0.10 0.13 0.14 0.14 0.15 0.13 0.12 0.13 0.15 0.12 0.11 0.11 0.11 0.14 0.15 0.15 0.16 0.15
0.00 0.00 0.00 0.00 0.00 0.00 0.00 0.00 0.01 0.01 0.02 0.03 0.03 0.02 0.02 0.02 0.02 0.02 0.02 0.02 0.03 0.03 0.03 0.06 0.06 0.05 0.06 0.10 0.14 0.18 0.19 0.14 0.13 0.17 0.16 0.13 0.11 0.10 0.13 0.14 0.15 0.16 0.15
0.00 0.00 0.00 0.00 0.00 0.00 0.00 0.01 0.01 0.00 0.01 0.01 0.01 0.02 0.02 0.02 0.02 0.02 0.02 0.02 0.01 0.01 0.01 0.02 0.04 0.05 0.05 0.06 0.08 0.11 0.13 0.14 0.19 0.18 0.18 0.14 0.11 0.11 0.14 0.14 0.13 0.15 0.16
0.00 0.00 0.00 0.00 0.00 0.01 0.00 0.01 0.01 0.01 0.01 0.01 0.02 0.02 0.02 0.01 0.01 0.02 0.02 0.01 0.01 0.01 0.01 0.01 0.02 0.03 0.03 0.03 0.04 0.06 0.07 0.13 0.18 0.17 0.17 0.14 0.10 0.09 0.12 0.13 0.13 0.15 0.16
0.00 0.00 0.00 0.00 0.01 0.01 0.01 0.02 0.02 0.01 0.02 0.02 0.02 0.02 0.02 0.02 0.02 0.01 0.01 0.01 0.01 0.01 0.00 0.01 0.01 0.02 0.03 0.03 0.02 0.03 0.05 0.10 0.14 0.16 0.19 0.14 0.10 0.09 0.11 0.12 0.12 0.15 0.14